Location: Taouli
(32.6625°N, 5.5729°W)
Time: 21:22:44
(UTC+00:00)

Daily predictions for brighter satellites

Satellite Brightness Start Highest point End
(mag) Time Altitude Azimuth Time Altitude Azimuth Time Altitude Azimuth
Cosmos 1125 Rocket 4.0 18:37:14 10° SSE 18:42:06 38° E 18:47:00 10° NE
SKYMED 2 4.3 18:38:08 10° N 18:42:24 60° WNW 18:46:40 10° SSW
Okean 2 3.8 18:42:31 10° NNW 18:46:39 70° W 18:50:45 10° S
Cosmos 2150 Rocket 4.0 18:43:37 10° S 18:48:56 73° ESE 18:54:21 10° NNE
CZ-2D R/B 3.2 18:45:15 10° SSE 18:49:05 65° ENE 18:52:56 10° N
CZ-4 R/B 1.6 18:45:04 10° SSE 18:49:09 51° ENE 18:53:13 10° N
Cosmos 1464 Rocket 4.0 18:44:37 10° SSE 18:50:34 57° E 18:56:35 10° NNE
CZ-2C R/B 3.7 18:46:25 10° SE 18:51:14 38° ENE 18:56:19 10° N
GOES 2 Rocket 3.5 18:47:35 10° WSW 18:51:54 47° S 18:55:37 12° ESE
Cosmos 1603 4.5 18:46:55 10° NNW 18:52:26 56° WSW 18:57:52 10° S
Cosmos 2285 Rocket 4.4 18:46:51 10° SSE 18:52:39 41° E 18:58:30 10° NNE
Cosmos 1867 3.6 18:47:13 10° NNW 18:52:39 67° ENE 18:58:02 10° SE
Okean-O 2.6 18:48:35 10° SSE 18:52:58 68° ENE 18:57:23 10° N
Cosmos 1674 4.5 18:58:03 10° NE 19:00:00 14° ENE 19:00:17 13° E
TSX-5 4.4 19:01:09 10° SSE 19:04:12 30° ESE 19:07:49 10° NE
ARGOS 4.0 19:02:23 10° SE 19:06:56 29° ENE 19:11:30 10° NNE
MOS 1 Rocket 3.3 19:03:12 10° NNE 19:07:20 45° E 19:11:26 10° S
Cosmos 2151 Rocket 3.5 19:08:08 10° S 19:12:33 70° E 19:17:01 10° NNE
HJ-1C 3.8 19:11:12 12° SE 19:13:56 37° ENE 19:17:01 10° N
In-Cosmos 22 4.2 19:09:20 10° N 19:14:34 55° E 19:19:54 10° SSE
Cosmos 1048 Rocket 4.4 19:10:17 10° N 19:15:20 42° ENE 19:19:50 13° SE
H-2A R/B 2.0 19:14:15 10° WSW 19:15:54 30° S 19:16:58 22° SE
CZ-2C R/B 3.4 19:12:59 10° NE 19:17:52 30° E 19:22:44 10° SSE
Shenzhou-11 Module 3.8 19:18:10 10° WNW 19:19:31 15° NNW 19:20:33 12° NNE
Cosmos 1975 Rocket 4.4 19:17:13 10° NNW 19:21:18 41° W 19:25:20 10° SSW
NOSS 3-2 (A) 4.3 19:14:01 10° NNW 19:21:44 56° ENE 19:28:55 15° SE
Meteor 1-15 Rocket 4.2 19:17:32 10° S 19:23:02 61° E 19:28:39 10° NNE
BREEZE-M DEB (TANK) 4.2 19:19:56 10° NNW 19:23:21 32° NE 19:27:36 20° E
Cosmos 1805 3.7 19:20:11 10° SSE 19:23:49 38° E 19:27:27 10° NNE
ATLAS 5 CENTAUR R/B 3.4 19:24:01 10° NW 19:28:09 84° SW 19:44:16 10° SSE
Ariane Rocket 4.0 19:28:06 25° E 19:28:52 26° ENE 19:33:01 10° NNE
Milstar 3 Cent rocket 2.9 19:21:03 10° WSW 19:29:44 54° S 19:32:39 27° ESE
H-2A R/B 1.9 19:25:12 10° SSE 19:30:05 67° ENE 19:35:07 10° N
USA 186 4.1 19:42:34 15° NNE 19:42:34 15° NNE 19:43:17 10° NNE
USA 234 3.8 19:38:13 27° E 19:40:26 33° SE 19:46:12 10° S
KORONAS-FOTON 4.1 19:37:57 10° N 19:41:32 45° ENE 19:41:32 45° ENE
Cosmos 1844 Rocket 4.2 19:36:45 10° SW 19:41:52 37° WNW 19:47:01 10° N
Nadezhda 4 Rocket 3.8 19:35:54 10° N 19:42:01 73° E 19:48:09 10° SSE
Cosmos 1707 4.3 19:40:49 10° NNW 19:44:20 36° W 19:47:51 10° SSW
CZ-2C R/B 1.2 19:41:13 10° W 19:44:53 55° SSW 19:45:20 50° SSE
Cosmos 2278 Rocket 2.6 19:40:49 10° S 19:45:58 37° ESE 19:46:16 37° E
Meteor 1-22 Rocket 4.4 19:45:17 10° SSE 19:50:52 51° E 19:56:41 10° NNE
Exosat Rocket 4.4 19:48:22 10° SSW 19:54:08 52° WNW 19:59:03 10° N
Okean 1 Rocket 3.1 19:51:47 10° S 19:56:15 83° W 20:00:45 10° N
NOSS 3-4 (A) 3.8 19:51:18 10° SW 19:57:03 60° WNW 20:03:05 10° NNE
NOSS 3-4 (C) 3.8 19:51:23 10° SW 19:57:09 61° WNW 20:03:11 10° NNE
NOSS 3-2 (C) 4.2 19:52:14 10° NNW 20:00:03 62° ENE 20:03:38 37° ESE
Meteor 2-5 Rocket 3.9 19:54:35 10° N 20:00:10 52° E 20:00:47 49° ESE
Meteor 1-24 Rocket 4.3 19:57:09 10° N 20:01:38 38° ENE 20:01:38 38° ENE
Cosmos 1766 3.4 20:01:40 10° SSW 20:05:32 69° W 20:09:27 10° N
Meteor 2-13 Rocket 4.3 19:59:57 10° N 20:06:06 73° E 20:08:35 37° SSE
Cosmos 1833 Rocket 4.4 20:09:38 10° N 20:11:54 18° NNE 20:11:54 18° NNE
CENTAUR R/B 3.1 20:10:32 10° NNW 20:19:00 77° ENE 20:22:00 47° SE
Cosmos 1634 Rocket 3.9 20:13:08 10° S 20:19:17 87° W 20:25:30 10° N
ATLAS 2AS CENTAUR R/B 3.6 20:11:41 10° SW 20:19:23 56° NW 20:27:11 10° NNE
ATLAS 3B R/B 3.8 20:24:53 10° N 20:29:50 29° NE 20:29:50 29° NE
Gbstr 26 Del rocket 4.1 20:27:33 10° SW 20:34:11 86° SE 20:35:23 66° NE
Cosmos 2026 Rocket 4.1 20:40:21 10° N 20:46:43 74° W 20:46:52 73° WSW
CZ-2C R/B 4.5 20:53:13 10° N 20:57:59 30° WNW 21:02:47 10° SW
Cosmos 2082 Rocket 4.5 21:02:09 10° N 21:03:08 15° N 21:03:08 15° N
USA 234 4.3 21:25:40 39° W 21:25:40 39° W 21:29:50 10° WSW
Cosmos 2278 Rocket 4.3 21:25:31 10° WSW 21:33:01 17° NNW 21:34:39 10° N
